CAPE
771 1306 896 698 393 584 842 1028 1014 930 832 691 632 659 794 813 863 950 1129 1261 1288 1338 1312 1127 1079 1077 1133 1183 1027 1077 1143 1177 1227 1371 1597 1557 1405 1155 939 1062 1029 1177 1181
747 1334 817 650 375 500 678 922 1007 1058 1101 979 821 797 863 835 858 1001 1198 1281 1249 1313 1264 1099 1163 1067 1129 1147 1053 998 1116 1140 1195 1490 1495 1411 1227 1490 1187 979 1101 1097 1075
946 1406 1007 647 395 435 625 759 990 1167 1262 1163 914 925 957 923 951 1091 1169 1221 1281 1364 1296 1205 1180 1109 1043 1006 954 1044 1081 1141 1216 1461 1385 1221 1343 1406 1121 1018 1058 1103 1205
1165 1534 1339 777 475 374 526 630 772 971 1229 1236 1083 1089 1086 1128 1169 1147 1138 1232 1344 1395 1346 1304 1332 1231 983 975 1033 1038 1110 1233 1248 1251 1356 1240 1260 1307 1221 838 1120 1161 1204
1308 1512 1579 949 617 398 451 605 800 973 1158 1292 1199 1191 1227 1294 1283 1227 1217 1356 1427 1462 1471 1502 1429 1114 844 895 995 1010 1099 1219 1200 1212 1490 1272 1171 1217 1110 753 710 644 799
1367 1495 1561 1035 789 567 513 603 825 1018 1159 1210 1195 1240 1399 1411 1394 1307 1237 1358 1448 1557 1616 1607 1367 877 765 809 939 1010 1012 1068 1074 1361 1254 1278 1124 1211 1028 735 629 674 720
1561 1668 1745 1078 910 755 680 616 711 968 1064 1107 1248 1437 1442 1474 1449 1299 1244 1293 1454 1390 1351 1397 1112 765 689 755 905 951 924 939 1306 1115 1219 1195 1131 747 596 448 357 407 749
1862 1918 1912 1278 1023 878 819 730 597 665 942 1156 1327 1322 1386 1431 1344 1287 1235 1282 1423 1328 1266 1195 836 665 638 713 840 881 836 831 1085 1196 971 1023 600 477 363 228 177 210 320
2117 2221 2151 1724 1352 1013 966 819 634 591 682 905 1087 1214 1342 1316 1220 1268 1303 1373 1424 1313 1186 944 601 584 655 684 719 706 693 735 1172 1050 861 931 361 199 27 66 143 161 187
2266 2329 2392 2062 1863 1704 1521 1017 781 682 710 888 1060 1178 1294 1277 1281 1327 1401 1426 1522 1375 1044 558 536 586 659 575 536 527 506 537 1127 977 831 872 115 4 8 5 135 152 139
2105 2278 2417 2304 2113 2078 1962 1688 1050 832 778 912 1137 1254 1370 1408 1552 1549 1474 1465 1496 1447 980 575 565 603 601 473 405 368 332 772 976 899 857 262 17 103 118 146 152 105 120
2031 2123 2231 2270 2238 2242 2032 2048 1749 1580 1231 1221 1332 1527 1458 1435 1558 1408 1394 1431 1245 1143 965 608 566 583 590 842 674 253 600 841 854 859 822 274 213 93 260 60 19 12 103
1563 1821 1982 2224 2199 2115 1876 1887 1852 1764 1623 1537 1542 1619 1525 1682 1695 1536 1613 1392 1341 1064 1080 779 690 785 818 940 900 729 717 847 620 662 620 223 161 45 114 68 59 84 83
203 1563 1740 1939 2133 2090 1802 1708 1825 1778 1754 1723 1682 1830 1713 1808 1791 1575 1608 1434 1431 1330 1131 964 923 844 1087 1032 883 879 846 622 454 478 688 179 116 115 158 23 66 130 114
0 842 1357 1707 1899 1914 1876 1614 1613 1650 1757 1657 1626 1740 1858 1663 1743 1751 1733 1597 1541 1498 1376 1147 977 1138 888 822 753 740 691 660 556 388 487 127 100 112 125 83 192 146 99
0 94 1315 1464 1642 1673 1626 1641 1677 1607 1460 1551 1494 1559 1601 1639 1645 1689 1778 1748 1711 1718 1471 1211 1043 973 786 674 572 493 374 350 356 296 324 399 40 54 113 109 142 196 74
0 0 544 1333 1593 1538 1408 1630 1630 1429 1451 1383 1523 1526 1583 1713 1688 1629 1684 1715 1513 1609 1585 1382 1137 940 773 688 522 508 295 251 198 279 259 305 245 1 47 118 140 131 45
0 0 0 1014 1349 1593 1473 1418 1467 1412 1319 1393 1467 1588 1517 1733 1675 1487 1387 1489 1595 1561 1543 1331 1129 779 821 747 571 494 351 296 321 303 250 219 296 202 48 38 79 97 45
0 0 0 498 1393 1472 1536 1437 1395 1399 1268 1243 1315 1304 1437 1463 1686 1453 1250 1189 1448 1116 944 1019 888 857 744 856 658 584 475 378 360 265 218 180 189 113 148 50 27 50 48
0 0 0 63 1563 1570 1549 1481 1359 1372 1243 1137 1043 956 1044 1213 1331 1220 1110 1055 1056 1215 877 844 620 504 856 797 539 499 481 466 377 314 248 188 102 106 204 167 131 55 38
0 0 0 0 1312 1810 1575 1257 1231 1237 1351 1110 1172 1123 1169 983 997 1112 1096 934 872 1115 945 899 675 555 583 674 581 328 218 312 291 246 335 218 114 143 160 203 235 252 142
0 0 0 5 521 1841 1810 1311 1106 1135 1165 1226 1285 1216 1247 1297 1135 979 1091 941 844 1016 962 799 705 438 432 396 286 214 239 154 43 36 232 155 211 220 189 237 307 187 213
0 0 0 0 1102 1799 2121 1821 1397 1287 1363 1420 1455 1379 1360 1312 1339 1166 1221 1412 1093 973 855 651 549 448 340 282 487 171 125 34 42 102 65 181 132 164 188 149 166 149 144
1 0 1 2 0 1328 2095 2028 1894 1880 1967 2071 2067 1865 1641 1388 1290 1346 1262 1308 1212 944 875 701 511 495 443 220 192 459 112 113 64 27 106 14 10 34 28 88 98 104 60
3 0 0 0 0 0 956 1214 1648 2091 2188 2325 2156 2059 1637 1402 1359 1391 1392 1397 1302 877 918 647 453 555 736 818 503 259 211 261 180 64 35 139 46 24 79 89 27 61 63
3 1 0 0 1 2 2 57 700 1330 2355 2154 2279 2103 1571 1298 1245 1337 1691 1484 1091 840 785 797 630 700 751 807 597 264 186 171 131 83 60 45 45 33 35 69 39 78 90
CIN
-245 -310 -476 -461 -498 -404 -292 -216 -186 -162 -155 -170 -180 -175 -140 -130 -109 -86 -56 -34 -26 -16 -16 -29 -32 -34 -35 -39 -51 -42 -37 -35 -39 -22 -0 -0 -7 -16 -36 -18 -8 -1 -2
-254 -333 -509 -492 -512 -420 -331 -223 -171 -137 -127 -138 -148 -143 -131 -127 -115 -86 -54 -32 -38 -31 -28 -39 -28 -37 -33 -34 -41 -46 -41 -39 -29 -6 -2 -2 -5 -0 -9 -31 -1 -2 -8
-256 -310 -448 -505 -525 -467 -355 -260 -168 -118 -107 -116 -134 -120 -117 -119 -105 -81 -66 -44 -38 -33 -32 -25 -26 -35 -36 -44 -53 -46 -39 -35 -33 -9 -10 -2 -0 -2 -15 -17 -10 -5 -6
-248 -286 -328 -489 -513 -482 -394 -310 -233 -161 -104 -109 -116 -115 -110 -98 -79 -76 -69 -53 -31 -29 -33 -24 -20 -28 -46 -49 -46 -45 -35 -24 -27 -25 -4 -3 -1 -0 -2 -17 -9 -6 -1
-249 -256 -285 -460 -492 -482 -429 -336 -228 -176 -123 -109 -116 -116 -100 -80 -65 -69 -67 -46 -34 -31 -25 -16 -18 -36 -60 -57 -47 -46 -30 -18 -18 -14 -0 -1 -3 -2 -5 -14 -17 -19 -6
-224 -225 -321 -444 -448 -455 -411 -344 -245 -165 -122 -119 -123 -110 -86 -68 -54 -56 -67 -51 -40 -26 -17 -14 -28 -67 -73 -61 -56 -43 -34 -19 -20 -1 -1 -1 -1 -7 -4 -13 -18 -16 -10
-214 -216 -302 -429 -429 -423 -375 -341 -287 -193 -129 -121 -112 -93 -82 -61 -49 -56 -62 -57 -39 -43 -35 -39 -54 -92 -84 -74 -62 -51 -49 -30 -2 -0 -0 -0 -0 -15 -14 -10 -14 -22 -11
-177 -195 -239 -377 -388 -384 -346 -316 -307 -267 -164 -118 -104 -101 -85 -68 -59 -55 -56 -50 -40 -53 -49 -58 -88 -95 -89 -80 -61 -60 -53 -36 -4 -0 -0 -3 -14 -6 -5 -7 -11 -6 -22
-147 -155 -174 -241 -286 -335 -314 -307 -305 -273 -229 -158 -116 -104 -85 -76 -70 -52 -45 -40 -39 -46 -60 -68 -115 -99 -81 -72 -67 -71 -63 -34 -0 -0 -2 -0 -61 -79 -177 -37 -20 -7 -28
-111 -130 -124 -146 -163 -173 -168 -250 -275 -261 -225 -163 -108 -94 -77 -68 -57 -48 -33 -27 -28 -37 -59 -108 -105 -97 -73 -66 -75 -79 -70 -49 -0 -0 -1 -0 -91 -206 -217 -189 -40 -28 -43
-83 -87 -79 -88 -100 -86 -70 -90 -209 -233 -220 -163 -90 -70 -53 -17 -10 -11 -12 -21 -20 -19 -60 -89 -90 -81 -74 -73 -79 -79 -74 -1 -0 -0 -0 -56 -31 -70 -69 -48 -34 -46 -44
-58 -64 -77 -83 -81 -53 -40 -39 -57 -68 -111 -98 -59 -22 -14 -3 -2 -2 -5 -18 -26 -30 -33 -71 -75 -72 -67 -6 -25 -82 -7 -0 -0 -1 -0 -47 -40 -28 -10 -30 -37 -44 -34
-70 -59 -70 -60 -74 -99 -109 -73 -57 -49 -54 -44 -33 -17 -6 -0 -1 -2 -1 -1 -1 -14 -2 -21 -39 -14 -8 -1 -0 -3 -1 -0 -1 -1 -16 -40 -35 -35 -27 -33 -14 -5 -15
-216 -84 -83 -81 -77 -90 -104 -125 -94 -75 -88 -72 -37 -18 -3 -1 -1 -2 -1 -0 -0 -1 -1 -1 -0 -1 -2 -3 -1 -1 -0 -0 -1 -0 -15 -42 -55 -23 -15 -57 -31 -2 -5
-0 -143 -127 -91 -108 -108 -116 -135 -136 -90 -71 -112 -105 -53 -21 -13 -6 -1 -0 -0 -0 -0 -0 -1 -1 -0 -2 -1 -2 -1 -2 -1 -0 -1 -0 -36 -53 -66 -10 -17 -14 -2 -5
-0 -153 -111 -119 -129 -147 -163 -145 -149 -154 -123 -93 -128 -123 -98 -37 -23 -9 -1 -0 -1 -0 -0 -1 -1 -1 -1 -1 -1 -6 -8 -3 -3 -1 -0 -9 -47 -48 -46 -18 -14 -0 -8
-0 -0 -162 -125 -134 -167 -214 -158 -159 -179 -151 -161 -116 -117 -118 -80 -53 -48 -9 -0 -10 -0 -0 -0 -0 -1 -1 -1 -1 -1 -7 -15 -14 -2 -1 -1 -12 -5 -47 -20 -12 -17 -33
-0 -0 -0 -119 -140 -143 -181 -183 -172 -159 -190 -151 -153 -106 -108 -84 -75 -104 -72 -25 -4 -4 -0 -1 -4 -19 -0 -1 -1 -1 -1 -2 -1 -1 -1 -1 -0 -1 -40 -37 -19 -14 -23
-0 -0 -0 -144 -105 -131 -148 -158 -153 -155 -183 -182 -173 -151 -133 -102 -76 -123 -127 -96 -33 -60 -57 -14 -18 -9 -4 -1 -1 -0 -0 -1 -2 -1 -3 -5 -2 -8 -5 -23 -26 -16 -14
-0 -0 -0 -46 -58 -108 -107 -109 -120 -128 -188 -201 -237 -235 -188 -145 -111 -139 -158 -138 -113 -56 -92 -70 -77 -62 -1 -1 -0 -1 -0 -0 -0 -1 -2 -6 -19 -14 -1 -2 -4 -9 -23
-0 -0 -0 -0 -44 -46 -70 -102 -111 -143 -170 -185 -179 -187 -165 -212 -182 -153 -146 -169 -172 -107 -116 -96 -83 -70 -36 -3 -3 -18 -22 -7 -3 -2 -1 -3 -14 -3 -1 -0 -0 -0 -1
-0 -0 -0 -82 -93 -5 -41 -126 -151 -158 -152 -152 -145 -156 -170 -173 -187 -190 -140 -149 -172 -112 -101 -99 -83 -109 -58 -36 -56 -36 -35 -47 -87 -77 -7 -14 -2 -1 -0 -5 -0 -2 -0
-0 -0 -0 -0 -10 -2 -6 -57 -115 -72 -67 -87 -136 -161 -174 -167 -154 -169 -129 -61 -98 -117 -136 -141 -123 -119 -98 -74 -13 -49 -50 -107 -59 -65 -68 -20 -14 -6 -2 -11 -10 -8 -2
-1 -1 -1 -2 -1 -35 -3 -4 -19 -66 -63 -92 -95 -104 -123 -178 -174 -136 -137 -83 -74 -134 -118 -133 -120 -94 -70 -102 -61 -37 -78 -51 -52 -20 -55 -113 -14 -33 -18 -8 -9 -18 -3
-0 -0 -0 -0 -0 -0 -91 -58 -2 -33 -14 -22 -71 -83 -131 -174 -147 -99 -102 -91 -86 -155 -113 -139 -125 -58 -25 -2 -20 -37 -65 -46 -65 -74 -54 -34 -48 -17 -5 -4 -16 -0 -2
-0 -0 -0 -0 -0 -0 -0 -296 -145 -5 -11 -35 -51 -68 -99 -144 -137 -112 -55 -78 -111 -147 -146 -127 -105 -55 -23 -3 -1 -19 -40 -49 -91 -83 -73 -72 -55 -37 -9 -10 -4 -0 -0
Wind_Speed
5 10 14 12 11 11 11 11 13 14 15 15 16 17 17 18 19 20 20 20 20 19 19 18 17 16 14 13 12 11 11 10 10 10 10 10 10 9 11 12 13 12 13
4 10 13 12 11 10 9 10 10 11 13 14 15 15 16 17 18 19 19 19 19 19 18 17 17 16 14 13 12 11 11 10 10 10 10 9 9 11 12 11 9 11 12
2 9 13 13 11 10 9 9 9 9 11 13 13 14 15 15 16 17 18 18 18 18 17 16 15 15 14 13 12 12 12 11 11 10 10 9 8 8 9 8 9 10 11
5 10 12 13 13 11 10 9 9 9 10 11 12 12 13 13 14 15 16 17 16 17 16 16 14 14 13 13 12 12 12 12 11 11 10 9 8 7 6 6 7 6 9
5 10 10 12 13 14 12 9 8 9 11 11 11 12 11 11 12 13 14 15 15 15 15 15 14 14 13 13 12 12 11 11 11 10 9 9 8 6 5 5 6 7 8
4 7 6 10 11 12 13 10 8 9 10 11 11 10 10 10 10 11 12 13 14 14 14 14 14 13 13 12 12 12 11 11 11 9 9 10 9 5 4 4 4 4 7
3 4 6 9 10 11 11 10 8 8 9 10 11 10 9 9 9 9 10 11 12 13 13 13 13 12 12 12 12 12 11 11 10 10 10 9 10 7 5 3 2 3 2
2 2 5 8 8 8 9 9 8 9 9 8 9 10 10 10 10 9 9 10 10 12 12 12 12 12 12 12 12 11 11 11 10 10 10 11 11 9 9 5 2 3 3
6 4 3 6 6 6 7 8 8 8 8 8 9 9 9 9 10 9 8 9 9 10 11 12 12 12 12 12 12 11 10 10 10 10 11 12 10 10 14 16 5 5 3
11 7 5 5 5 4 4 5 6 7 7 8 8 8 9 9 9 8 8 8 7 8 9 10 11 12 11 11 10 10 10 10 10 10 11 10 11 9 7 11 6 2 3
17 14 10 7 6 4 3 3 4 5 6 7 7 7 7 8 8 7 8 7 7 6 7 8 9 10 11 10 10 10 10 9 10 10 11 11 10 9 9 11 12 6 3
24 17 14 11 9 7 5 4 5 4 6 6 6 7 8 7 8 7 6 6 6 5 5 6 7 8 10 9 9 9 8 9 9 10 11 10 10 10 8 6 3 3 1
28 22 18 15 12 9 7 7 6 4 4 5 5 5 7 6 6 6 4 4 4 4 4 4 4 6 8 7 8 8 7 7 8 10 10 7 8 8 5 6 6 4 1
30 27 21 19 16 13 10 9 8 6 5 5 5 5 5 5 4 7 4 5 4 3 3 3 3 3 4 5 6 6 6 6 7 9 9 5 5 4 4 2 3 8 3
36 29 26 22 19 16 14 11 9 8 7 7 7 6 5 4 3 4 3 3 3 2 2 2 1 2 2 2 3 4 4 4 5 7 9 4 3 1 3 2 3 5 5
38 33 27 25 23 20 18 14 12 10 10 10 9 8 8 5 3 3 3 2 2 1 0 0 1 1 1 2 2 3 3 4 4 6 8 8 4 1 3 2 2 5 0
40 35 31 28 24 23 20 18 14 12 11 11 12 12 10 8 6 5 3 2 4 2 1 2 2 2 2 3 3 4 5 5 5 5 7 8 8 6 4 3 3 2 2
42 40 36 28 28 25 23 20 17 15 14 13 12 13 14 11 9 8 7 5 3 6 5 4 4 5 4 4 3 2 6 7 7 8 7 8 9 10 9 4 4 4 5
44 42 39 32 31 29 25 23 21 19 18 16 15 13 15 16 13 10 9 8 7 7 7 7 7 7 6 6 5 6 9 10 11 11 8 8 8 13 13 10 5 7 7
45 45 43 37 32 31 28 26 23 22 21 19 17 15 16 18 18 15 12 11 10 9 9 10 9 9 8 7 8 9 10 12 14 13 10 9 8 8 12 13 11 10 9
44 41 42 39 34 32 31 29 27 23 23 21 19 18 17 19 19 16 15 14 13 12 12 10 11 10 12 9 12 15 18 17 15 17 13 10 9 8 9 14 15 15 13
41 40 42 42 38 35 33 31 28 25 24 23 20 19 19 17 16 16 17 17 15 15 14 13 12 16 15 10 14 17 20 16 15 14 11 10 9 11 10 12 14 15 15
39 39 39 40 40 38 36 33 29 28 26 25 22 20 17 17 16 17 17 19 18 16 16 15 14 16 17 14 12 15 18 18 18 15 11 12 11 11 11 11 15 15 13
35 34 36 37 38 37 38 36 33 32 29 25 24 22 22 22 22 22 22 21 21 19 17 17 16 17 19 19 17 17 14 22 20 20 14 14 13 12 12 12 13 13 15
29 29 30 31 32 33 33 35 36 35 29 26 27 25 24 22 25 27 25 24 23 20 20 19 18 17 19 18 16 17 16 16 17 22 25 19 16 14 12 11 13 17 12
25 26 26 26 27 28 29 27 26 33 32 28 26 25 24 25 27 29 31 28 25 23 22 20 18 18 18 21 20 20 18 16 19 19 21 22 22 20 15 14 12 14 16
Wind_Direction
97 121 131 124 109 91 78 76 88 94 101 103 104 104 100 98 100 101 97 96 96 95 95 96 97 96 81 77 74 64 57 46 52 56 51 54 42 28 54 71 77 55 66
112 131 135 129 117 101 83 74 83 89 99 102 105 103 102 100 99 101 100 99 98 98 99 96 93 91 84 79 74 61 61 63 57 54 56 55 43 71 72 69 53 70 66
120 141 140 133 124 112 95 87 81 83 97 103 105 103 101 99 97 98 100 102 100 100 100 97 88 81 73 74 71 65 65 69 67 67 75 51 48 57 57 53 62 68 66
131 145 143 137 130 120 110 100 93 86 95 104 106 102 99 96 96 96 99 101 100 99 98 96 84 79 74 67 66 65 69 74 75 80 76 38 42 43 43 56 62 45 61
131 144 142 140 134 129 124 110 100 95 101 104 105 101 97 95 94 95 97 99 97 97 95 93 87 83 75 73 71 67 66 68 75 86 37 33 36 36 31 39 40 60 60
134 143 142 144 137 131 131 122 110 105 107 109 106 101 99 97 94 94 95 96 98 95 93 91 91 86 77 77 70 69 66 73 85 81 34 16 18 34 9 19 44 49 55
143 150 146 151 142 135 134 129 119 115 113 112 110 106 101 100 98 96 94 94 96 96 93 91 93 88 85 79 73 75 72 80 89 44 40 42 27 51 17 3 39 71 49
246 200 158 159 151 142 139 133 129 126 124 117 114 111 109 106 106 102 97 95 92 95 98 98 100 96 90 84 80 76 70 83 69 51 35 26 22 43 31 1 1 281 53
275 247 199 175 169 157 150 143 139 136 131 126 122 118 115 113 113 109 102 99 91 91 97 100 102 100 93 86 85 72 69 80 51 36 37 36 45 67 71 48 343 293 20
275 255 231 203 194 183 169 158 151 144 138 133 130 124 119 117 116 112 106 104 93 91 91 95 101 100 97 89 79 70 62 63 64 46 37 57 74 81 66 85 105 14 36
275 263 258 240 230 219 208 197 181 161 150 142 137 128 123 118 122 116 120 112 108 88 82 91 98 100 98 85 78 70 71 66 46 44 45 92 75 70 90 105 113 82 5
272 263 257 249 246 248 253 230 194 177 160 157 150 142 137 129 130 123 116 112 107 86 66 78 90 90 104 97 95 74 82 36 44 24 30 94 92 93 63 40 72 66 344
275 265 259 253 246 235 236 251 242 216 193 181 172 157 150 136 129 130 108 112 106 86 59 62 66 97 116 94 104 104 73 64 38 17 17 96 110 107 61 69 85 8 75
277 267 259 253 249 245 248 239 239 228 220 228 209 182 170 152 138 141 126 129 124 105 99 101 70 79 87 101 105 97 84 80 40 20 21 97 113 106 44 92 57 151 152
274 269 259 249 246 244 241 245 234 226 238 234 241 236 214 181 161 151 147 137 129 99 113 113 67 15 105 62 64 77 85 77 38 25 7 55 150 125 8 134 354 137 314
273 269 259 249 244 245 243 240 238 232 251 250 244 235 227 229 229 187 178 160 174 143 126 105 120 350 5 354 351 4 16 23 29 13 1 2 353 306 317 333 331 348 155
271 270 263 252 241 237 238 240 236 235 240 245 255 251 236 226 245 253 222 230 266 262 245 293 312 316 314 323 320 332 334 343 349 354 349 348 348 328 301 275 300 267 248
271 267 264 253 244 235 236 236 240 241 241 250 249 256 257 241 246 254 260 259 264 287 286 290 296 307 298 306 307 302 318 324 329 332 335 335 334 332 324 291 272 260 252
271 266 262 255 247 239 236 237 241 247 250 251 253 253 256 256 250 256 258 262 273 285 278 282 291 295 297 303 309 314 316 315 318 322 322 325 322 319 318 319 270 266 266
271 266 260 255 248 240 240 237 240 245 249 252 253 253 258 261 259 260 264 265 268 275 278 278 283 289 296 300 306 311 315 316 315 316 317 317 319 318 312 310 309 293 258
271 268 260 254 247 240 235 233 237 237 246 249 253 254 256 260 260 255 265 265 260 265 270 270 279 281 290 301 313 310 310 313 310 308 310 309 305 302 306 306 303 301 289
270 268 262 254 247 242 236 234 235 241 245 251 253 255 256 256 256 255 263 267 264 269 270 267 268 286 287 287 303 308 311 318 312 301 299 299 295 305 303 298 300 296 294
271 267 263 256 249 242 238 236 236 243 247 250 251 255 250 251 254 257 258 265 269 265 270 264 263 273 281 283 279 301 313 314 323 330 304 304 300 304 303 304 302 297 291
276 270 263 256 250 246 240 238 231 235 243 248 257 260 262 260 260 261 263 263 267 269 267 268 266 269 278 280 284 282 284 307 316 321 331 322 311 306 303 301 302 297 293
280 271 264 258 250 247 244 242 237 233 244 255 260 263 264 267 265 267 264 264 264 264 267 267 267 265 272 275 278 287 280 288 298 305 308 321 323 315 308 305 304 298 292
279 267 261 257 252 248 244 246 245 257 253 257 261 265 271 272 273 271 269 267 264 263 261 262 260 262 268 273 275 279 285 286 289 293 301 307 309 315 311 308 302 294 291